User: anonymous   Login
Location: Unspecified
(0.0000°N, 0.0000°E)
Time: 22:55:51
(UTC+00:00)
Language:

Bion-M1 - Orbit

View from above orbital plane
View from above orbital plane
View from above satellite
View from above satellite

Ground track
Ground track

The orbit data is extracted from the following two-line orbital elements,

1 39130U 13015A   13138.98210593  .00002292  00000-0  12881-3 0   943
2 39130 064.8766 300.0340 0078242 185.2934 174.7374 15.13569246  4447
Epoch (UTC): 18 May 2013 23:34:13
Eccentricity: 0.0078242
inclination: 64.8766°
perigee height: 471 km
apogee height: 579 km
right ascension of ascending node: 300.0340°
argument of perigee: 185.2934°
revolutions per day: 15.13569246
mean anomaly at epoch: 174.7374°
orbit number at epoch: 444

The dashed part of the orbit path shows where the satellite is in the earth's shadow,  

DLR